sat.trackr.live / text

‹ back to catalog

GPS BIIF-10 (PRN 08)

NORAD 40730 · 2015-033A

PAYLOAD ACTIVE UNKNOWN

§ Identity

Operator
Country
US
Launch date
2015-07-15
Launch site
AFETR
Launch vehicle
Mass (kg)
RCS (m²)
23.10

Purposes: earth_obs, nav

External: N2YO · Heavens-Above · Gunter

§ Orbital elements

Epoch: 2026-05-24T06:55:23.877984Z

Period
718.00 min
Inclination
54.0016°
Eccentricity
0.0115011
Mean motion
2.00557479 rev/d
Perigee alt
19,877.3 km
Apogee alt
20,488.2 km
Semi-major
26,560.9 km
B*
0.0000e+0
RAAN
268.0716°
Arg perigee
30.1269°
Mean anomaly
330.5181°
Rev number
7,951

§ Raw data

GPS BIIF-10 (PRN 08)1 40730U 15033A   26144.28847081 -.00000071  00000+0  00000+0 0  99982 40730  54.0016 268.0716 0115011  30.1269 330.5181  2.00557479 79514

JSON: /api/v1/satellites/40730 · /tle

For live sub-satellite position, see the globe view (requires WebGL).

§ Visibility from observer

Set your observer location to see the next 7 days of passes ≥ 10°. The values pass through the URL so the page stays shareable.

No JS? Fill the form by hand. The geolocation button needs JavaScript.